Tucson Davis Monthan, AZ

10:52 PM MST on June 21, 2018 (GMT -0700)
Davis-Monthan Air Force Base

Weather History for KDMA - August, 2011

Change the Weather History Date:

Wednesday, August 31, 2011

  Actual Average Record
Temperature  
Mean Temperature 94 °F -  
Max Temperature 104 °F 96 °F 109 °F (2017)
Min Temperature 84 °F 71 °F 63 °F (1951)
Cooling Degree Days 29    
Growing Degree Days 44 (Base 50)    
Moisture  
Dew Point 54 °F    
Average Humidity 29    
Maximum Humidity 40    
Minimum Humidity 16    
Precipitation  
Precipitation 0.00 in - - ()
Sea Level Pressure  
Sea Level Pressure 29.60 in    
Wind  
Wind Speed 7 mph (SE)    
Max Wind Speed 20 mph    
Max Gust Speed 30 mph    
Visibility 10 miles    
Events Thunderstorm    
Averages and records for this station are not official NWS values.
T = Trace of Precipitation, MM = Missing Value Source: NWS Daily Summary

Daily Weather History Graph

Daily Weather History Graph

Search for Another Location

Airport or City:

Astronomy

Aug. 31, 2011 Rise Set
Actual Time 5:57 AM MST 6:49 PM MST
Civil Twilight 5:32 AM MST 7:14 PM MST
Nautical Twilight 5:03 AM MST 7:43 PM MST
Astronomical Twilight 4:33 AM MST 8:13 PM MST
Moon 8:52 AM MST (8/31) 8:21 PM MST (8/31)
Length of Visible Light 13h 41m
Length of Day
12h 51m
Waxing Crescent, 10% of the Moon is Illuminated
Aug 31
Waxing Crescent
Sep 4
First Quarter
Sep 12
Full
Sep 20
Last Quarter
Sep 27
New

Hourly Weather History & Observations

Time (MST) Temp. Heat Index Dew Point Humidity Pressure Visibility Wind Dir Wind Speed Gust Speed Precip Events Conditions
12:55 AM 87.3 °F - 52.9 °F 31% 29.57 in 10.0 mi SSE 5.8 mph - N/A   Clear
1:55 AM 86.4 °F 84.5 °F 53.8 °F 33% 29.57 in 10.0 mi SSE 6.9 mph - N/A   Partly Cloudy
2:55 AM 86.9 °F 84.9 °F 53.4 °F 32% 29.58 in 10.0 mi SSE 9.2 mph - N/A   Overcast
3:55 AM 85.1 °F 83.5 °F 53.8 °F 34% 29.57 in 10.0 mi SSE 5.8 mph - N/A   Overcast
4:55 AM 84.4 °F 83.4 °F 55.9 °F 38% 29.58 in 10.0 mi SSE 10.4 mph - N/A   Mostly Cloudy
5:55 AM 84.9 °F 84.1 °F 57.2 °F 39% 29.60 in 10.0 mi NNE 3.5 mph - N/A   Overcast
6:26 AM 84.2 °F 83.5 °F 57.2 °F 40% 29.62 in 10.0 mi East 4.6 mph - N/A Thunderstorm Thunderstorm
6:41 AM 84.2 °F 83.5 °F 57.2 °F 40% 29.63 in 10.0 mi South 4.6 mph - N/A   Scattered Clouds
6:55 AM 84.6 °F 83.7 °F 56.8 °F 39% 29.64 in 10.0 mi Calm Calm - N/A   Mostly Cloudy
7:55 AM 87.3 °F 86.1 °F 57.4 °F 36% 29.63 in 10.0 mi SSE 5.8 mph - N/A   Scattered Clouds
8:55 AM 91.2 °F 89.6 °F 56.5 °F 31% 29.64 in 10.0 mi South 3.5 mph - N/A   Clear
9:55 AM 92.8 °F 91.1 °F 56.7 °F 29% 29.64 in 10.0 mi WSW 3.5 mph - N/A   Scattered Clouds
10:55 AM 96.3 °F 94.0 °F 54.5 °F 24% 29.62 in 10.0 mi NNW 3.5 mph - N/A   Clear
11:55 AM 98.8 °F - 52.5 °F 21% 29.61 in 10.0 mi NNW 4.6 mph - N/A   Clear
12:55 PM 101.7 °F - 51.4 °F 19% 29.57 in 10.0 mi Variable 5.8 mph - N/A   Clear
1:55 PM 103.5 °F - 50.4 °F 17% 29.54 in 10.0 mi WNW 8.1 mph - N/A   Clear
2:55 PM 104.2 °F - 48.9 °F 16% 29.52 in 10.0 mi Calm Calm - N/A   Clear
3:55 PM 102.7 °F - 50.9 °F 18% 29.52 in 10.0 mi West 3.5 mph - N/A   Partly Cloudy
4:55 PM 94.3 °F 92.1 °F 54.0 °F 26% 29.55 in 10.0 mi SSW 9.2 mph - N/A Thunderstorm Partly Cloudy
5:04 PM 95.0 °F - 51.8 °F 23% 29.55 in 10.0 mi Variable 4.6 mph - N/A Thunderstorm Light Drizzle
5:30 PM 96.8 °F 94.4 °F 53.6 °F 23% 29.55 in 10.0 mi SW 8.1 mph - N/A   Clear
5:55 PM 91.6 °F 89.6 °F 55.2 °F 29% 29.57 in 10.0 mi South 10.4 mph - 0.00 in   Mostly Cloudy
6:24 PM 93.2 °F 90.8 °F 53.6 °F 26% 29.61 in 10.0 mi SE 11.5 mph - N/A   Light Drizzle
6:32 PM 93.2 °F 90.8 °F 53.6 °F 26% 29.61 in 10.0 mi East 13.8 mph - N/A   Overcast
6:37 PM 93.2 °F 90.8 °F 53.6 °F 26% 29.60 in 10.0 mi East 19.6 mph 26.5 mph N/A   Light Drizzle
6:38 PM 93.2 °F 90.8 °F 53.6 °F 26% 29.60 in 10.0 mi East 18.4 mph 26.5 mph N/A   Light Drizzle
6:54 PM 89.6 °F 87.7 °F 55.4 °F 31% 29.63 in 10.0 mi East 18.4 mph 29.9 mph N/A Thunderstorm Mostly Cloudy
6:55 PM 90.1 °F 88.3 °F 55.6 °F 31% 29.63 in 10.0 mi East 18.4 mph 26.5 mph 0.00 in Thunderstorm Mostly Cloudy
7:11 PM 87.8 °F 86.1 °F 55.4 °F 33% 29.65 in 10.0 mi South 11.5 mph - N/A   Overcast
7:55 PM 91.2 °F - 51.4 °F 26% 29.64 in 10.0 mi ESE 6.9 mph - N/A   Scattered Clouds
8:55 PM 90.0 °F 87.7 °F 53.6 °F 29% 29.64 in 10.0 mi Calm Calm - N/A   Mostly Cloudy
9:55 PM 89.2 °F 87.3 °F 54.5 °F 31% 29.62 in 10.0 mi East 9.2 mph - N/A   Mostly Cloudy
10:55 PM 87.8 °F 85.9 °F 54.7 °F 32% 29.63 in 10.0 mi SE 11.5 mph - N/A   Mostly Cloudy
11:55 PM 89.1 °F 86.9 °F 53.4 °F 30% 29.62 in 10.0 mi ESE 4.6 mph - N/A   Overcast